PulseSat

PulseSat

GSAT0102 (PRN E12)

Last updated on March 24, 2019, 3:12 a.m. UTC

1 37847U 11060B   19081.90811409 -.00000054  00000-0  00000+0 0  9997
2 37847  56.3203  53.7705 0006675 311.8935 224.0729  1.70475600 46186
UTC
Height (km)
Latitude
Longitude
Inclination
Orbital Period

Next 30 passes for location: Hong Kong

Rise time Rise Azimuth (degrees) Set time Set Azimuth (degrees) Duration Max altitude (degrees)

No matching passes for this satellites

PulseSat

PulseSat is the new satellites software and hardware trackering solution by Pulsely.
Satellite Two Line Element Set source: US Air Force Space Command

Download PulseSat for iOS
© 2017 Pulsely Limited